This is the latest recevied weather packets stored in our database for station/object N7CEE. If no packets are shown the sender has not sent any weather packets the latest 10 day(s).
| Time | Temp. | Humidity | Pressure | Rain* | Wind** | Luminosity | Snow |
|---|---|---|---|---|---|---|---|
| 1777424009 | 15.56° C | 22% | 1023.9 hPa | 0 mm | - | 34 W/m² | - |
| 1777423706 | 15° C | 23% | 1024 hPa | 0 mm | - | 30 W/m² | - |
| 1777421279 | 15.56° C | 23% | 1023.9 hPa | 0 mm | - | 40 W/m² | - |
| 1777418549 | 16.67° C | 20% | 1023.9 hPa | 0 mm | - | 357 W/m² | - |
| 1777413987 | 17.22° C | 17% | 1024 hPa | 0 mm | - | 624 W/m² | - |
| 1777413075 | 17.78° C | 18% | 1024.4 hPa | 0 mm | - | 661 W/m² | - |
| 1777412166 | 18.33° C | 17% | 1024.2 hPa | 0 mm | - | 696 W/m² | - |
| 1777411561 | 17.78° C | 16% | 1024.2 hPa | 0 mm | - | 718 W/m² | - |
| 1777411256 | 16.67° C | 18% | 1024.2 hPa | 0 mm | - | 729 W/m² | - |
| 1777410951 | 16.67° C | 18% | 1024.5 hPa | 0 mm | - | 738 W/m² | - |
| 1777410650 | 17.78° C | 17% | 1024.4 hPa | 0 mm | - | 748 W/m² | - |
| 1777410345 | 17.78° C | 17% | 1024.4 hPa | 0 mm | - | 756 W/m² | - |
| 1777409734 | 16.67° C | 18% | 1024.1 hPa | 0 mm | - | 788 W/m² | - |
| 1777408519 | 16.67° C | 17% | 1024.6 hPa | 0 mm | - | 348 W/m² | - |
| 1777408218 | 16.67° C | 16% | 1024.6 hPa | 0 mm | - | 310 W/m² | - |
| 1777407914 | 17.78° C | 16% | 1024.5 hPa | 0 mm | - | 565 W/m² | - |
| 1777407612 | 16.67° C | 18% | 1024.7 hPa | 0 mm | - | 624 W/m² | - |
| 1777407007 | 17.78° C | 16% | 1024.5 hPa | 0 mm | - | 572 W/m² | - |
| 1777406097 | 16.11° C | 16% | 1024.7 hPa | 0 mm | - | 884 W/m² | - |
| 1777404582 | 16.67° C | 18% | 1024.5 hPa | 0 mm | - | 873 W/m² | - |
| 1777404278 | 16.67° C | 21% | 1024.7 hPa | 0 mm | - | 857 W/m² | - |
| 1777403974 | 16.67° C | 21% | 1024.6 hPa | 0 mm | - | 770 W/m² | - |
| 1777403674 | 16.11° C | 20% | 1024.7 hPa | 0 mm | - | 850 W/m² | - |
| 1777403067 | 16.67° C | 22% | 1024.7 hPa | 0 mm | - | 569 W/m² | - |
| 1777401248 | 15.56° C | 23% | 1025.2 hPa | 0 mm | - | 649 W/m² | - |
* Rain latest hour (hover to see other rain measurements)
** Current wind speed in m/s (hover to see current wind gust speed)